CAPE
0 0 0 0 0 0 0 0 0 0 0 0 0 0 0 0 0 0 0 0 0 0 0 0 0 0 0 0 173 1097 1244 1504 1532 1553 1670 1753 1726 1646 1501 1518 1467 1353 1430 1386
0 0 0 0 0 0 0 0 0 0 0 0 0 0 0 0 0 0 0 0 0 0 0 0 0 0 0 98 332 1139 1539 1632 1641 1553 961 1103 1564 1488 1808 1991 2179 2074 1600 992
0 0 0 0 0 0 0 0 0 0 0 0 0 0 0 0 0 0 0 0 0 0 0 0 0 0 0 85 327 674 1036 1049 644 288 4 26 19 56 160 169 178 181 274 297
0 0 0 0 0 0 0 0 0 0 0 1 0 0 0 0 0 0 0 0 0 0 0 0 0 0 0 12 8 66 86 135 152 108 116 356 106 23 4 8 3 26 20 19
0 0 0 0 0 0 0 0 0 0 0 0 0 0 0 0 0 0 0 0 0 0 0 0 0 0 0 0 0 0 0 5 33 28 56 30 48 0 0 0 14 26 22 49
0 0 0 0 0 0 0 0 0 0 0 3 0 0 0 0 0 0 0 0 0 0 0 0 0 0 0 0 0 0 0 19 25 19 11 37 110 2 0 7 1 0 0 30
0 0 0 0 0 0 0 0 0 0 0 0 0 0 0 0 0 0 0 0 0 0 0 0 0 0 0 0 0 0 0 0 0 0 0 0 0 0 9 37 0 9 0 8
0 0 0 0 0 0 1 0 4 2 0 0 0 0 0 0 0 0 0 0 0 0 0 0 0 0 0 0 0 0 0 0 0 0 0 0 0 0 0 0 0 0 0 5
0 0 0 1 5 8 1 7 0 2 0 1 0 0 0 0 0 0 0 0 0 0 0 0 0 0 0 0 0 0 0 0 0 0 0 0 0 0 0 0 0 0 0 0
3 32 14 26 6 2 29 0 21 5 19 4 2 0 22 0 0 0 0 0 0 0 0 0 0 0 0 0 0 0 0 0 0 0 0 0 0 0 0 0 0 0 0 0
0 4 1 1 1 27 8 25 3 2 1 17 5 4 0 0 0 0 0 0 0 0 0 0 0 0 0 0 0 0 0 0 0 0 0 0 0 0 0 0 0 0 0 0
0 0 29 0 0 0 0 0 31 131 16 1 4 11 0 0 0 0 0 0 0 0 0 0 0 0 0 0 0 0 0 0 0 0 0 0 0 0 0 0 0 0 0 0
16 0 2 1 0 0 0 0 0 0 0 13 26 28 0 0 0 0 0 0 0 0 0 0 0 0 0 0 0 0 0 0 0 0 0 0 0 0 0 0 0 0 0 0
16 0 0 56 6 1 7 12 0 0 8 0 0 1 0 0 0 0 0 0 0 0 0 0 0 0 0 0 0 0 0 0 0 0 0 0 0 0 0 0 0 0 0 0
0 0 0 0 0 0 0 0 0 0 0 0 0 0 0 0 0 0 0 0 0 0 0 0 0 0 0 0 0 0 0 0 0 0 0 0 0 0 0 0 0 1 1 1
0 0 0 0 0 0 0 0 0 0 0 0 0 0 0 0 0 0 0 0 0 0 0 0 0 0 0 0 0 0 0 0 0 0 0 0 1 1 2 3 5 5 5 7
0 0 0 0 0 0 0 0 0 0 0 0 0 0 0 0 0 0 0 0 0 0 0 0 0 0 0 0 0 0 0 0 0 0 1 1 2 4 4 5 6 9 10 14
0 0 0 0 0 0 0 0 0 0 0 0 0 0 0 0 0 0 0 0 0 0 0 0 0 0 0 0 0 0 0 1 2 1 2 2 3 3 5 8 6 9 8 15
0 0 0 0 0 0 0 4 4 14 1 0 0 0 0 0 0 0 0 0 0 0 0 0 0 0 0 0 2 5 5 5 3 2 3 2 3 5 6 11 8 13 19 13
0 0 0 0 0 0 14 6 7 9 24 0 0 0 0 0 0 0 0 0 0 0 0 0 0 0 2 3 5 6 6 4 4 2 2 2 2 4 5 7 7 11 13 14
16 19 3 2 0 0 0 1 0 18 4 0 0 0 0 0 0 0 0 0 0 0 0 1 3 3 6 7 5 6 6 2 1 2 1 1 2 4 7 6 12 30 25 13
1 4 8 10 4 0 0 2 10 1 0 0 0 0 0 0 0 0 0 0 0 1 2 4 6 6 5 8 6 3 3 2 1 2 2 3 3 9 10 15 27 26 8 10
14 21 20 7 14 35 1 0 0 0 0 0 0 0 0 0 0 0 1 4 3 2 3 5 3 5 7 2 5 4 2 2 5 9 9 9 13 18 14 33 21 48 28 19
39 8 34 19 35 42 0 0 0 0 0 0 0 0 0 0 3 5 3 4 0 1 2 12 13 8 5 4 2 3 2 4 6 6 7 10 12 10 35 35 19 33 52 25
12 23 20 20 45 0 1 0 0 0 0 0 0 0 1 3 5 5 4 8 8 17 20 16 20 12 6 3 3 2 2 4 6 5 5 6 7 12 27 24 10 20 23 34
2 21 48 43 48 15 0 0 0 0 0 0 0 0 1 4 6 11 14 21 25 28 30 23 18 7 4 3 2 2 2 2 5 6 6 13 5 18 13 23 7 0 0 0
CIN
-0 -0 -0 -0 -0 -0 -0 -0 -0 -0 -0 -0 -0 -0 -0 -0 -0 -0 -0 -0 -0 -0 -0 -0 -0 -0 -0 -0 -380 -276 -285 -270 -237 -199 -148 -110 -114 -94 -99 -101 -105 -104 -79 -63
-0 -0 -0 -0 -0 -0 -0 -0 -0 -0 -0 -0 -0 -0 -0 -0 -0 -0 -0 -0 -0 -0 -0 -0 -0 -0 -0 -344 -372 -271 -272 -279 -241 -199 -248 -193 -124 -116 -70 -51 -24 -17 -42 -84
-0 -0 -0 -0 -0 -0 -0 -0 -0 -0 -0 -0 -0 -0 -0 -0 -0 -0 -0 -0 -0 -0 -0 -0 -0 -0 -0 -350 -376 -335 -331 -321 -381 -430 -271 -498 -438 -353 -265 -260 -227 -228 -183 -169
-0 -0 -0 -0 -0 -0 -0 -0 -0 -0 -0 -0 -0 -0 -0 -0 -0 -0 -0 -0 -0 -0 -0 -0 -0 -0 -0 -421 -88 -525 -541 -496 -466 -481 -379 -254 -198 -200 -122 -118 -286 -289 -331 -290
-0 -0 -0 -0 -0 -0 -0 -0 -0 -0 -0 -0 -0 -0 -0 -0 -0 -0 -0 -0 -0 -0 -0 -0 -0 -0 -0 -0 -0 -0 -0 -538 -527 -471 -316 -265 -228 -0 -0 -0 -267 -277 -301 -264
-0 -0 -0 -0 -0 -0 -0 -0 -0 -0 -0 -11 -5 -0 -0 -0 -0 -0 -0 -0 -0 -0 -0 -0 -0 -0 -0 -0 -0 -0 -0 -391 -355 -342 -212 -217 -132 -47 -0 -66 -72 -0 -0 -213
-0 -0 -0 -0 -0 -0 -0 -0 -0 -0 -0 -0 -0 -0 -0 -0 -0 -0 -0 -0 -0 -0 -0 -0 -0 -0 -0 -0 -0 -0 -0 -0 -0 -0 -0 -0 -0 -0 -95 -184 -0 -92 -0 -162
-0 -0 -0 -0 -0 -0 -1 -0 -0 -0 -0 -0 -0 -0 -0 -0 -0 -0 -0 -0 -0 -0 -0 -0 -0 -0 -0 -0 -0 -0 -0 -0 -0 -0 -0 -0 -0 -0 -0 -0 -0 -0 -0 -13
-0 -0 -0 -2 -29 -13 -0 -9 -0 -2 -0 -1 -0 -0 -0 -0 -0 -0 -0 -0 -0 -0 -0 -0 -0 -0 -0 -0 -0 -0 -0 -0 -0 -0 -0 -0 -0 -0 -0 -0 -0 -0 -0 -0
-5 -4 -45 -41 -26 -7 -19 -0 -21 -34 -3 -0 -5 -0 -2 -0 -0 -0 -0 -0 -0 -0 -0 -0 -0 -0 -0 -0 -0 -0 -0 -0 -0 -0 -0 -0 -0 -0 -0 -0 -0 -0 -0 -0
-0 -1 -1 -1 -2 -12 -27 -31 -64 -11 -17 -0 -0 -1 -0 -0 -0 -0 -0 -0 -0 -0 -0 -0 -0 -0 -0 -0 -0 -0 -0 -0 -0 -0 -0 -0 -0 -0 -0 -0 -0 -0 -0 -0
-0 -26 -0 -0 -0 -0 -0 -1 -30 -3 -14 -2 -19 -13 -0 -0 -0 -0 -0 -0 -0 -0 -0 -0 -0 -0 -0 -0 -0 -0 -0 -0 -0 -0 -0 -0 -0 -0 -0 -0 -0 -0 -0 -0
-21 -0 -0 -46 -3 -0 -0 -0 -0 -0 -0 -6 -0 -4 -0 -0 -0 -0 -0 -0 -0 -0 -0 -0 -0 -0 -0 -0 -0 -0 -0 -0 -0 -0 -0 -0 -0 -0 -0 -0 -0 -0 -0 -0
-91 -0 -0 -0 -18 -29 -78 -88 -0 -0 -5 -0 -0 -10 -0 -0 -0 -0 -0 -0 -0 -0 -0 -0 -0 -0 -0 -0 -0 -0 -0 -0 -0 -0 -0 -0 -0 -0 -0 -0 -0 -0 -0 -0
-0 -10 -0 -0 -0 -0 -0 -0 -0 -0 -0 -0 -0 -0 -0 -0 -0 -0 -0 -0 -0 -0 -0 -0 -0 -0 -0 -0 -0 -0 -0 -0 -0 -0 -0 -0 -0 -0 -0 -0 -0 -0 -0 -0
-0 -0 -0 -0 -0 -0 -0 -0 -0 -0 -0 -0 -0 -0 -0 -0 -0 -0 -0 -0 -0 -0 -0 -0 -0 -0 -0 -0 -0 -0 -0 -0 -0 -0 -0 -0 -0 -0 -0 -0 -0 -0 -0 -0
-0 -0 -0 -0 -0 -0 -0 -0 -0 -0 -0 -0 -0 -0 -0 -0 -0 -0 -0 -0 -0 -0 -0 -0 -0 -0 -0 -0 -0 -0 -0 -0 -0 -0 -0 -0 -0 -0 -0 -0 -0 -0 -0 -0
-0 -0 -0 -0 -0 -0 -0 -0 -0 -0 -0 -0 -0 -0 -0 -0 -0 -0 -0 -0 -0 -0 -0 -0 -0 -0 -0 -0 -0 -0 -0 -0 -0 -0 -0 -0 -0 -0 -0 -0 -0 -0 -0 -0
-0 -0 -0 -0 -0 -0 -0 -0 -4 -3 -0 -0 -0 -0 -0 -0 -0 -0 -0 -0 -0 -0 -0 -0 -0 -0 -0 -0 -0 -0 -0 -0 -0 -0 -0 -0 -0 -0 -0 -0 -0 -0 -0 -0
-0 -0 -0 -0 -0 -0 -0 -15 -44 -24 -0 -0 -0 -0 -0 -0 -0 -0 -0 -0 -0 -0 -0 -0 -0 -0 -0 -0 -0 -0 -0 -0 -0 -0 -0 -0 -0 -0 -0 -0 -0 -0 -0 -0
-0 -0 -0 -0 -0 -0 -0 -7 -6 -0 -0 -0 -0 -0 -0 -0 -0 -0 -0 -0 -0 -0 -0 -0 -0 -0 -0 -0 -0 -0 -0 -0 -0 -0 -0 -0 -0 -0 -0 -0 -0 -0 -0 -0
-0 -0 -0 -0 -0 -0 -0 -2 -0 -0 -0 -0 -0 -0 -0 -0 -0 -0 -0 -0 -0 -0 -0 -0 -0 -0 -0 -0 -0 -0 -0 -0 -0 -0 -0 -0 -0 -0 -0 -0 -0 -0 -0 -0
-0 -0 -0 -0 -0 -0 -0 -0 -0 -0 -0 -0 -0 -0 -0 -0 -0 -0 -0 -0 -0 -0 -0 -0 -0 -0 -0 -0 -0 -0 -0 -0 -0 -0 -0 -0 -7 -4 -0 -0 -0 -0 -1 -0
-0 -10 -0 -0 -0 -0 -0 -0 -0 -0 -0 -0 -0 -0 -0 -0 -0 -0 -0 -0 -0 -0 -0 -0 -0 -0 -0 -0 -0 -0 -0 -0 -0 -0 -0 -0 -0 -0 -0 -1 -0 -0 -0 -0
-0 -0 -0 -0 -0 -0 -0 -0 -0 -0 -0 -0 -0 -0 -0 -0 -0 -0 -0 -0 -0 -0 -0 -0 -0 -0 -0 -0 -0 -0 -0 -0 -0 -0 -0 -0 -0 -0 -0 -1 -0 -0 -0 -0
-0 -0 -0 -0 -0 -1 -0 -0 -0 -0 -0 -0 -0 -0 -0 -0 -0 -0 -0 -0 -0 -0 -0 -0 -0 -0 -0 -0 -0 -0 -0 -0 -0 -0 -0 -0 -0 -1 -0 -0 -0 -0 -0 -0
Wind_Speed
7 11 14 15 15 13 13 9 15 17 21 18 22 21 20 14 15 13 14 18 22 22 19 9 11 11 9 7 10 13 14 12 11 10 9 9 10 8 7 7 10 9 8 9
7 15 14 14 14 13 13 16 11 4 13 16 20 24 22 16 15 17 14 23 23 20 23 15 9 9 12 11 12 11 11 11 10 7 4 2 6 5 5 6 8 8 8 8
9 5 16 11 11 13 15 14 11 6 5 9 9 19 17 16 17 15 20 24 23 23 21 12 9 12 12 13 13 9 7 8 8 9 7 5 5 4 3 3 4 5 8 8
8 9 10 12 15 14 17 14 15 9 5 7 5 8 11 11 14 10 8 12 13 13 12 9 9 11 13 12 5 5 5 6 5 6 6 8 6 7 5 6 4 6 6 6
9 12 11 10 16 17 16 12 14 14 9 4 6 6 6 4 7 7 2 3 4 5 3 5 6 9 8 4 4 7 8 7 7 7 8 8 7 5 4 4 5 6 6 7
10 3 6 5 6 14 5 5 5 3 6 10 10 8 7 5 2 1 2 7 9 9 7 7 7 6 6 7 8 9 8 8 7 6 5 6 6 6 6 6 7 7 7 7
5 9 5 4 6 6 6 8 6 8 8 6 4 8 1 2 4 4 5 9 11 12 13 13 12 8 8 10 9 7 5 8 6 5 5 6 5 5 7 7 6 7 7 8
10 9 9 9 10 7 7 7 7 12 8 8 3 6 4 4 5 6 8 11 14 15 14 16 15 13 13 12 11 10 10 10 9 8 7 6 5 5 5 7 7 8 8 9
10 10 3 6 4 6 7 5 3 7 1 4 5 3 0 5 8 9 12 12 13 13 14 15 16 15 14 15 16 14 12 11 9 8 7 7 6 6 5 7 7 8 9 9
5 4 2 4 4 7 5 9 5 3 6 8 6 5 7 11 8 8 10 11 12 12 14 13 13 13 12 11 10 11 10 9 7 7 6 5 5 6 7 7 7 7 8 9
5 3 3 2 1 5 6 5 5 4 2 6 7 5 0 6 6 10 11 10 10 10 11 10 10 10 10 10 11 10 9 8 7 7 7 8 9 10 10 9 10 10 10 11
2 3 5 2 4 4 1 2 3 4 6 1 1 4 3 7 8 10 11 9 9 9 8 7 7 7 8 9 7 6 6 7 8 9 10 11 12 12 12 12 13 13 14 14
8 3 2 3 3 3 2 2 3 5 2 9 8 4 6 6 7 7 9 7 6 5 6 6 7 7 8 8 8 9 10 12 12 12 13 13 13 13 14 14 14 14 15 15
10 5 5 4 4 3 5 6 5 2 3 4 8 4 9 8 7 6 6 4 3 4 6 8 9 10 10 11 12 12 12 12 13 13 14 14 14 15 14 15 15 15 15 16
2 6 4 8 5 4 4 8 7 7 3 5 1 6 5 8 5 5 3 2 1 2 6 8 10 10 11 12 12 12 14 14 14 15 15 14 14 14 15 15 15 15 15 15
3 5 4 4 4 2 4 6 7 7 7 9 9 12 7 4 7 5 2 1 3 3 8 10 10 11 12 12 13 14 15 15 14 15 15 15 15 15 15 15 15 15 15 16
3 6 4 5 1 2 6 10 12 5 5 7 9 7 1 4 3 1 3 4 1 6 10 11 12 13 13 13 15 16 15 14 15 15 15 15 15 15 15 15 16 16 16 16
6 6 2 4 4 5 6 3 6 7 5 4 4 6 6 4 3 5 3 5 6 10 13 13 13 13 12 13 15 15 15 15 14 15 15 14 15 15 15 15 16 16 15 15
4 4 5 4 4 2 5 4 5 3 5 3 5 4 4 7 6 7 6 8 11 13 13 13 14 14 16 16 15 15 15 14 14 15 15 15 15 16 16 17 14 14 13 13
8 6 4 4 3 4 5 4 4 1 5 3 3 4 5 7 6 4 10 14 15 14 13 15 16 15 14 15 14 15 15 15 15 14 15 15 16 15 16 14 14 13 13 13
4 3 3 4 1 2 2 1 3 4 6 4 3 4 4 5 6 12 14 13 12 13 15 15 15 15 13 14 14 14 14 14 14 14 15 15 15 14 15 14 12 12 12 13
5 5 3 2 2 2 2 2 3 6 6 5 6 6 6 8 10 12 14 15 16 17 16 15 14 14 14 13 13 13 13 14 14 15 16 16 15 13 11 13 13 12 12 12
5 1 5 3 2 7 8 10 6 4 8 7 5 5 7 8 10 11 13 14 15 15 15 14 14 15 14 12 10 13 14 14 15 15 15 15 15 14 13 13 11 10 10 9
4 3 4 5 5 8 10 11 11 11 11 8 6 6 7 10 11 12 12 13 13 13 14 13 14 14 12 11 12 12 13 14 14 14 15 14 13 14 15 10 8 9 9 8
2 7 7 6 10 12 9 12 10 11 10 8 6 7 9 10 12 13 13 13 13 13 11 11 9 9 12 13 13 12 12 12 12 13 13 13 10 12 13 11 9 10 12 11
2 5 4 2 8 7 9 9 9 10 9 7 6 7 8 11 12 13 12 11 9 10 10 8 9 11 13 13 13 13 12 13 12 11 10 11 10 9 10 10 10 12 14 19
Wind_Direction
186 205 210 225 207 240 247 247 230 225 212 206 218 226 231 219 206 207 235 264 264 266 260 231 245 232 217 218 203 204 190 184 176 177 179 196 205 200 205 208 210 213 218 218
177 224 216 222 237 235 240 260 239 296 192 203 216 229 228 215 221 213 206 239 258 275 280 274 232 213 204 200 214 207 198 180 179 172 166 190 182 205 218 209 204 197 189 186
195 213 208 201 238 238 234 245 252 242 153 221 195 229 233 219 229 215 220 227 239 245 251 241 220 216 207 210 208 211 193 183 173 156 129 112 106 94 141 176 173 186 183 182
219 215 183 208 230 219 243 228 242 249 225 230 223 214 203 178 197 210 201 200 218 218 219 221 214 213 212 215 189 157 136 153 147 150 149 150 161 166 190 189 183 184 196 198
191 179 190 216 228 202 244 224 228 235 229 223 190 238 165 158 209 167 232 57 33 28 8 263 223 225 227 218 158 118 119 134 149 165 168 166 173 189 178 182 188 206 215 220
191 195 188 213 201 198 131 141 124 155 206 231 215 234 193 167 118 128 69 27 26 18 26 34 61 104 126 144 130 127 144 161 171 191 192 207 195 190 189 204 215 216 222 221
179 203 208 190 207 154 189 185 178 193 199 227 172 202 50 51 29 340 20 52 56 53 52 49 50 69 105 112 111 121 83 63 47 26 12 2 346 329 289 281 259 254 231 223
199 210 200 190 220 216 193 219 232 216 191 179 167 210 126 23 52 85 89 77 64 57 55 55 54 57 61 60 62 67 63 53 32 23 13 358 339 301 290 286 283 274 270 274
186 215 166 201 172 200 155 207 83 107 29 205 148 107 22 97 85 88 81 69 60 62 64 69 67 62 60 60 57 61 66 65 57 53 49 41 24 8 339 315 297 283 282 275
189 147 114 112 140 64 233 132 176 155 191 223 163 185 145 163 126 92 69 73 77 73 69 66 66 63 59 56 58 53 49 44 33 22 15 7 346 334 321 312 308 311 306 292
139 193 148 226 36 180 152 160 79 88 352 237 230 164 209 151 130 104 101 96 87 77 74 70 62 52 48 41 36 33 27 17 9 359 343 326 316 312 305 299 299 296 293 286
90 86 144 143 353 282 347 107 175 184 177 92 310 132 67 124 124 127 125 119 106 96 88 71 52 40 30 26 21 20 6 347 336 325 321 317 312 311 305 300 296 294 289 286
132 71 161 181 184 156 153 83 93 94 84 205 223 141 133 133 125 125 126 119 110 89 63 40 28 17 8 6 358 352 342 336 331 326 318 311 307 304 300 297 296 294 292 288
107 125 212 226 79 113 155 144 138 144 193 206 239 165 173 176 152 146 146 129 103 49 22 8 358 355 353 350 344 338 331 326 319 315 309 306 305 304 302 301 297 294 293 290
94 134 152 91 99 80 141 164 164 195 170 238 110 233 223 212 199 161 138 161 210 9 0 354 344 340 336 331 328 323 319 318 318 312 308 305 303 300 298 297 295 296 292 289
25 108 124 108 82 98 230 241 242 238 242 257 269 274 284 92 124 153 168 280 266 336 341 336 332 327 324 323 321 319 313 314 314 309 304 304 301 300 298 297 295 294 293 292
84 133 135 152 134 179 246 238 223 209 208 239 242 280 145 126 132 77 324 316 312 344 333 328 324 322 321 320 319 312 313 312 309 305 302 302 303 299 299 302 298 296 296 297
122 106 78 126 169 211 52 317 206 165 134 167 114 89 79 63 0 325 12 67 356 337 329 326 323 319 317 315 313 313 315 310 306 304 302 304 305 307 302 299 300 299 297 296
59 114 109 161 194 29 129 108 128 198 132 97 117 92 40 358 317 108 85 10 338 329 326 323 322 322 321 318 321 313 310 309 307 306 310 312 309 304 302 298 295 289 288 291
80 79 101 156 186 177 97 103 4 208 180 124 109 68 21 347 306 31 349 337 330 329 327 324 323 317 319 321 317 313 309 313 310 317 308 305 303 299 293 290 287 287 283 282
135 129 138 149 156 122 85 358 318 223 73 104 80 57 19 344 335 320 322 326 323 325 323 321 315 313 318 315 314 310 313 309 307 307 307 304 299 293 290 288 286 284 287 285
148 140 154 124 205 192 8 154 249 95 93 89 67 36 354 332 325 326 325 327 329 327 325 323 318 318 316 319 320 312 302 309 311 307 305 303 300 299 299 294 290 292 287 279
150 197 156 206 88 105 73 81 65 88 107 76 59 25 349 332 329 326 324 326 324 323 323 323 321 316 321 321 310 305 306 313 313 309 307 309 311 311 311 295 291 292 285 279
114 129 93 151 147 120 107 95 90 89 96 88 61 32 4 344 339 334 331 329 328 329 330 327 321 320 313 315 312 309 315 313 313 313 316 320 318 307 302 299 290 286 289 286
48 162 134 114 121 102 93 106 109 101 95 85 69 43 25 1 353 345 338 338 334 331 326 328 318 308 312 322 322 324 320 323 319 316 315 313 308 305 307 302 297 294 294 286
194 139 176 135 151 105 121 120 127 102 87 66 35 17 22 9 358 349 345 337 329 331 326 319 319 330 330 328 327 327 329 329 322 314 314 309 304 309 306 303 296 281 258 271